Hoquiam, WA
on Saturday, February 16, 2013

Saturday
Previous Day Next Day
Daily Summary
 ActualAverageRecord
Temperature
Mean Temperature °F 44°F  
Max Temperature 48°F 50°F 57°F (1962)
Min Temperature 43°F 38°F 18°F (1956)
Degree Days
Heating Degree Days 20 21  
Month to date heating degree days 346  
Cooling Degree Days 0 0  
Month to date cooling degree days 0  
Year to date cooling degree days 0  
Moisture
Dew Point 42°F   
Average Humidity 85    
Maximum Humidity 100    
Minimum Humidity 68    
Precipitation
Precipitation 0.07 in 0.23 in 1.82 in (2014)
Month to date precipitation 4.31  
Year to date precipitation 14.64  
Wind
Wind Speed 8 mph   
Max Wind Speed 21 mph   
Max Gust Speed 28 mph   
Visibility 8 miles   
Events Rain   

Key: T is trace of precipitation, MM is missing value
Source: NWS Daily Summary
Time(PST)TemperatureDew PointHumidity Pressure Visibility Wind DirectionWind SpeedGust SpeedPrecipitationEvents Conditions
12:10 AM 44.6°F 42.8°F 93% 30.20 in 9.0 miles Calm Calm - N/A   Overcast
12:18 AM 44.6°F 42.8°F 93% 30.20 in 8.0 miles Calm Calm - N/A   Overcast
12:26 AM 44.6°F 42.8°F 93% 30.20 in 8.0 miles Calm Calm - N/A   Overcast
12:53 AM 44.1°F 43.0°F 96% 30.21 in 7.0 miles Calm Calm - N/A   Overcast
1:53 AM 45.0°F 43.0°F 93% 30.21 in 8.0 miles Calm Calm - N/A   Overcast
2:53 AM 46.0°F 45.0°F 96% 30.22 in 10.0 miles WSW 9.2 mph - N/A   Overcast
3:53 AM 46.0°F 45.0°F 96% 30.21 in 5.0 miles WSW 8.1 mph - N/A   Overcast
4:53 AM 46.0°F 45.0°F 96% 30.22 in 2.5 miles SW 10.4 mph - N/A   Overcast
5:03 AM 46.4°F 44.6°F 93% 30.20 in 3.0 miles SW 9.2 mph - N/A   Overcast
5:05 AM 46.4°F 44.6°F 93% 30.20 in 2.5 miles SW 9.2 mph - 0.01 in   Overcast
5:12 AM 46.4°F 46.4°F 100% 30.21 in 2.5 miles SW 8.1 mph - 0.01 in   Overcast
5:44 AM 46.4°F 44.6°F 93% 30.21 in 2.0 miles SW 10.4 mph - 0.01 in   Overcast
5:53 AM 46.0°F 45.0°F 96% 30.21 in 3.0 miles WSW 15.0 mph 21.9 mph 0.02 in Rain Light Rain
6:14 AM 46.4°F 42.8°F 87% 30.20 in 10.0 miles West 9.2 mph 18.4 mph 0.00 in   Overcast
6:53 AM 46.0°F 44.1°F 93% 30.22 in 10.0 miles West 6.9 mph - 0.00 in   Overcast
7:03 AM 46.4°F 44.6°F 93% 30.21 in 10.0 miles WSW 5.8 mph - N/A   Overcast
7:21 AM 46.4°F 44.6°F 93% 30.21 in 10.0 miles West 11.5 mph - N/A   Overcast
7:53 AM 46.9°F 44.1°F 90% 30.23 in 7.0 miles WSW 16.1 mph 21.9 mph 0.01 in Rain Light Rain
8:06 AM 46.4°F 44.6°F 93% 30.22 in 4.0 miles WSW 13.8 mph - 0.01 in Rain Light Rain
8:31 AM 46.4°F 44.6°F 93% 30.23 in 7.0 miles WSW 10.4 mph - 0.01 in Rain Light Rain
8:53 AM 46.0°F 44.1°F 93% 30.24 in 8.0 miles West 10.4 mph - 0.02 in   Overcast
9:09 AM 46.4°F 44.6°F 93% 30.23 in 8.0 miles West 10.4 mph - 0.01 in Rain Light Rain
9:53 AM 48.0°F 44.1°F 86% 30.25 in 10.0 miles WSW 11.5 mph - 0.01 in   Overcast
10:02 AM 48.2°F 44.6°F 87% 30.23 in 10.0 miles WSW 11.5 mph - N/A   Overcast
10:16 AM 48.2°F 42.8°F 82% 30.23 in 10.0 miles WSW 12.7 mph - N/A   Mostly Cloudy
10:53 AM 48.0°F 41.0°F 77% 30.25 in 10.0 miles West 17.3 mph - 0.00 in Rain Light Rain
11:53 AM 48.0°F 41.0°F 77% 30.25 in 10.0 miles West 17.3 mph 20.7 mph 0.00 in   Mostly Cloudy
12:53 PM 48.9°F 41.0°F 74% 30.24 in 10.0 miles West 20.7 mph 26.5 mph 0.00 in   Scattered Clouds
1:23 PM 48.2°F 42.8°F 82% 30.22 in 10.0 miles WSW 18.4 mph 24.2 mph 0.00 in   Mostly Cloudy
1:53 PM 46.9°F 41.0°F 80% 30.23 in 10.0 miles West 17.3 mph 24.2 mph 0.00 in   Overcast
2:22 PM 48.2°F 39.2°F 71% 30.22 in 10.0 miles West 18.4 mph - N/A   Overcast
2:53 PM 48.0°F 39.0°F 71% 30.24 in 10.0 miles West 16.1 mph - N/A   Overcast
3:25 PM 48.2°F 39.2°F 71% 30.22 in 10.0 miles West 20.7 mph 27.6 mph N/A   Mostly Cloudy
3:35 PM 46.4°F 41.0°F 81% 30.23 in 10.0 miles WSW 19.6 mph 27.6 mph 0.00 in Rain Light Rain
3:53 PM 46.9°F 41.0°F 80% 30.24 in 10.0 miles West 13.8 mph 21.9 mph 0.00 in   Overcast
4:19 PM 46.4°F 39.2°F 76% 30.22 in 10.0 miles West 11.5 mph - 0.00 in   Mostly Cloudy
4:53 PM 45.0°F 39.9°F 82% 30.24 in 10.0 miles WNW 13.8 mph 21.9 mph 0.01 in Rain Light Rain
5:53 PM 45.0°F 37.9°F 76% 30.24 in 10.0 miles West 10.4 mph - 0.00 in   Mostly Cloudy
6:53 PM 44.1°F 37.9°F 79% 30.25 in 10.0 miles West 12.7 mph - 0.00 in   Mostly Cloudy
7:53 PM 45.0°F 37.0°F 74% 30.26 in 10.0 miles West 12.7 mph 20.7 mph 0.00 in   Mostly Cloudy
8:53 PM 45.0°F 35.1°F 68% 30.26 in 10.0 miles West 15.0 mph - N/A   Mostly Cloudy
9:53 PM 44.1°F 35.1°F 71% 30.26 in 10.0 miles West 13.8 mph - N/A   Partly Cloudy
10:53 PM 43.0°F 36.0°F 76% 30.27 in 10.0 miles WNW 8.1 mph - N/A   Mostly Cloudy
11:53 PM 43.0°F 36.0°F 76% 30.26 in 10.0 miles West 8.1 mph - N/A   Clear
Moon Phase
Feb. 16 Feb. 17 Feb. 25 Mar. 04 Mar. 11
Sunrise:07:17 AM (PST) Moon Rise:10:06 AM (PST)2/16
Sunset:05:42 PM (PST) Moon Set:12:14 AM (PST)2/16

Copyright © 2014 The Weather Underground, Inc.